Location: N�rnberg
(49.4471°N, 11.0632°E)
Time: 21:11:10
(UTC+02:00)

VELOX 1 - Pass Details

Date: 22 April 2026
Orbit: 569 x 580 km, 98.3° (Epoch: 13 May)

Event Time Altitude Azimuth Distance (km) Brightness Sun altitude
Rises 00:55:20 0° 12° (NNE) 2,785 ? -28.3°
Reaches altitude 10° 00:57:30 10° 10° (N) 1,883 ? -28.3°
Enters shadow 01:00:15 41° 356° (N) 842 ? -28.4°
